GW4712 Weather Reports


time (UTC)temp
F
wind
direction
speed
knots
gust
knots
rain 1hr
in
rain 24hr
in
rain mn
in
humidity
%
barometer
mb
20260502220053 52 346 0.9 3.5 0.00 0.00 0.00 43 1015.2
20260502215550 52 316 5.2 7.0 0.00 0.00 0.00 45 1014.9
20260502215047 52 313 4.3 8.7 0.00 0.00 0.00 45 1014.8
20260502214544 53 314 5.2 7.0 0.00 0.00 0.00 42 1014.9
20260502214041 53 315 3.5 6.1 0.00 0.00 0.00 45 1014.6
20260502213538 53 307 1.7 3.5 0.00 0.00 0.00 43 1014.8
20260502213036 52 311 5.2 9.6 0.00 0.00 0.00 43 1014.8
20260502212534 53 318 4.3 11.3 0.00 0.00 0.00 42 1014.5
20260502212032 54 314 5.2 8.7 0.00 0.00 0.00 38 1014.8
20260502211527 54 312 6.1 7.0 0.00 0.00 0.00 39 1014.8
20260502211025 52 316 3.5 5.2 0.00 0.00 0.00 42 1014.6
20260502210521 52 248 5.2 7.8 0.00 0.00 0.00 42 1014.6
20260502210019 52 297 3.5 5.2 0.00 0.00 0.00 41 1014.7
20260502205515 53 279 4.3 11.3 0.00 0.00 0.00 41 1014.7
20260502205012 53 254 1.7 2.6 0.00 0.00 0.00 40 1014.7
20260502204509 53 12 0.9 3.5 0.00 0.00 0.00 43 1014.7
20260502204007 54 314 1.7 3.5 0.00 0.00 0.00 42 1014.6
20260502203503 54 308 0.9 1.7 0.00 0.00 0.00 39 1014.9
20260502203000 54 293 4.3 8.7 0.00 0.00 0.00 41 1014.5
20260502202456 53 318 3.5 5.2 0.00 0.00 0.00 38 1014.9
20260502201955 55 315 5.2 7.0 0.00 0.00 0.00 38 1014.8
20260502201450 54 234 1.7 2.6 0.00 0.00 0.00 38 1014.6
20260502200947 55 318 1.7 5.2 0.00 0.00 0.00 37 1014.7
20260502200443 54 310 5.2 7.0 0.00 0.00 0.00 43 1014.9
20260502195941 55 313 6.1 9.6 0.00 0.00 0.00 39 1014.9
20260502195438 57 301 6.1 12.2 0.00 0.00 0.00 42 1014.9
20260502194934 55 315 2.6 11.3 0.00 0.00 0.00 40 1015.2
20260502194431 54 276 4.3 7.0 0.00 0.00 0.00 40 1015.1
20260502193927 53 302 3.5 5.2 0.00 0.00 0.00 45 1015.3
20260502193424 53 315 5.2 7.0 0.00 0.00 0.00 41 1015.5
20260502192920 53 312 4.3 7.0 0.00 0.00 0.00 44 1015.2
20260502192417 53 306 6.1 9.6 0.00 0.00 0.00 42 1015.5
20260502191914 53 334 0.9 2.6 0.00 0.00 0.00 44 1015.6
20260502191412 55 334 6.1 12.2 0.00 0.00 0.00 43 1015.3
20260502190909 55 241 4.3 7.8 0.00 0.00 0.00 39 1015.3
20260502190406 54 258 1.7 3.5 0.00 0.00 0.00 43 1015.5
20260502185902 52 4 0.9 3.5 0.00 0.00 0.00 45 1015.7
20260502185357 53 1 1.7 3.5 0.00 0.00 0.00 41 1015.5
20260502184855 53 318 1.7 7.0 0.00 0.00 0.00 44 1015.6
20260502184350 54 266 3.5 9.6 0.00 0.00 0.00 44 1015.4
20260502183847 52 317 3.5 5.2 0.00 0.00 0.00 47 1015.9
20260502183343 54 318 3.5 7.0 0.00 0.00 0.00 44 1015.7
20260502182838 54 229 0.9 5.2 0.00 0.00 0.00 47 1015.7
20260502182334 52 307 4.3 11.3 0.00 0.00 0.00 44 1015.8
20260502181831 51 268 5.2 9.6 0.00 0.00 0.00 46 1015.9
20260502181330 52 256 7.0 9.6 0.00 0.00 0.00 45 1015.9
20260502180827 54 313 7.8 8.7 0.00 0.00 0.00 46 1015.9
20260502180324 54 322 5.2 9.6 0.00 0.00 0.00 48 1016.0
20260502170243 51 323 3.5 7.0 0.00 0.00 0.00 52 1016.1
20260502164230 53 316 4.3 7.0 0.00 0.00 0.00 42 1016.2
20260502163726 53 271 5.2 14.8 0.00 0.00 0.00 44 1016.2
20260502163223 53 311 4.3 8.7 0.00 0.00 0.00 50 1016.2
20260502162720 52 300 3.5 7.8 0.00 0.00 0.00 43 1016.4
20260502162216 51 312 3.5 6.1 0.00 0.00 0.00 42 1016.6
20260502161713 51 320 3.5 11.3 0.00 0.00 0.00 47 1016.6
20260502161210 51 319 1.7 7.8 0.00 0.00 0.00 48 1016.6
20260502160708 51 311 5.2 6.1 0.00 0.00 0.00 46 1016.6
20260502160207 50 309 3.5 8.7 0.00 0.00 0.00 47 1016.6
20260502152126 49 314 3.5 6.1 0.00 0.00 0.00 49 1016.7
20260502151623 50 5 2.6 3.5 0.00 0.00 0.00 52 1016.7
20260502151120 49 321 1.7 7.8 0.00 0.00 0.00 51 1017.0
20260502150618 49 275 5.2 8.7 0.00 0.00 0.00 55 1016.7
20260502150114 49 296 0.9 2.6 0.00 0.00 0.00 56 1016.9
20260502130503 44 351 0.0 0.0 0.00 0.00 0.00 86 1017.0
20260502123445 40 303 0.0 0.0 0.00 0.00 0.00 97 1016.9
20260502122943 39 303 0.0 0.0 0.00 0.00 0.00 98 1017.1
20260502122438 38 302 0.0 0.0 0.00 0.00 0.00 98 1017.1
20260502121937 37 303 0.0 0.0 0.00 0.00 0.00 99 1017.1
20260502121433 36 302 0.0 0.0 0.00 0.00 0.00 99 1017.3
20260502120931 37 304 0.0 0.0 0.00 0.00 0.00 99 1017.2
20260502120427 36 304 0.0 0.0 0.00 0.00 0.00 99 1017.3
20260502115925 35 304 0.0 0.0 0.00 0.00 0.00 99 1017.3
20260502115422 34 304 0.0 0.0 0.00 0.00 0.00 99 1017.3
20260502114918 35 305 0.0 0.0 0.00 0.00 0.00 99 1017.1
20260502114415 35 305 0.0 0.0 0.00 0.00 0.00 99 1017.0
20260502113912 34 304 0.0 0.0 0.00 0.00 0.00 99 1017.1
20260502113410 34 304 0.0 0.0 0.00 0.00 0.00 99 1017.1
20260502112908 33 304 0.0 0.0 0.00 0.00 0.00 99 1017.1
20260502112405 33 304 0.0 0.0 0.00 0.00 0.00 99 1017.0
20260502111902 33 304 0.0 0.0 0.00 0.00 0.00 99 1017.0
20260502111359 33 304 0.0 0.0 0.00 0.00 0.00 99 1016.9
20260502110857 32 304 0.0 0.0 0.00 0.00 0.00 99 1016.9
20260502110355 32 304 0.0 0.0 0.00 0.00 0.00 99 1016.9
20260502105852 31 304 0.0 0.0 0.00 0.00 0.00 99 1017.0
20260502105349 31 304 0.0 0.0 0.00 0.00 0.00 99 1017.2
20260502104847 31 304 0.0 0.0 0.00 0.00 0.00 99 1017.2
20260502104344 31 304 0.0 0.0 0.00 0.00 0.00 99 1017.2
20260502103840 31 304 0.0 0.0 0.00 0.00 0.00 99 1017.2
20260502103338 31 304 0.0 0.0 0.00 0.00 0.00 99 1017.1
20260502102835 31 304 0.0 0.0 0.00 0.00 0.00 99 1017.0
20260502102331 31 304 0.0 0.0 0.00 0.00 0.00 99 1017.1
20260502101829 31 304 0.0 0.0 0.00 0.00 0.00 99 1017.1
20260502101327 32 304 0.0 0.0 0.00 0.00 0.00 99 1017.1
20260502100826 32 304 0.0 0.0 0.00 0.00 0.00 99 1017.1
20260502100324 32 304 0.0 0.0 0.00 0.00 0.00 99 1017.1
20260502091258 33 304 0.0 0.0 0.00 0.00 0.00 99 1017.2
20260502090755 33 304 0.0 0.0 0.00 0.00 0.00 99 1017.1
20260502090252 33 304 0.0 0.0 0.00 0.00 0.00 99 1017.2
20260502071153 34 305 0.0 0.0 0.00 0.00 0.00 98 1016.7
20260502070651 34 305 0.0 0.0 0.00 0.00 0.00 98 1016.8
20260502070149 34 305 0.0 0.0 0.00 0.00 0.00 98 1016.7
20260502065647 34 305 0.0 0.0 0.00 0.00 0.00 98 1016.8
20260502065144 34 305 0.0 0.0 0.00 0.00 0.00 98 1017.0
20260502064643 34 305 0.0 0.0 0.00 0.00 0.00 98 1017.1
20260502064139 34 305 0.0 0.0 0.00 0.00 0.00 98 1017.0
20260502063637 34 305 0.0 0.0 0.00 0.00 0.00 98 1017.1
20260502063135 34 305 0.0 0.0 0.00 0.00 0.00 98 1017.1
20260502062632 34 305 0.0 0.0 0.00 0.00 0.00 98 1017.1
20260502062129 34 305 0.0 0.0 0.00 0.00 0.00 98 1017.0
20260502061628 34 305 0.0 0.0 0.00 0.00 0.00 98 1017.3
20260502061125 34 305 0.0 0.0 0.00 0.00 0.00 98 1017.3
20260502060624 34 306 0.0 0.0 0.00 0.00 0.00 98 1017.3
20260502060121 34 306 0.0 0.0 0.00 0.00 0.00 97 1017.3
20260502055619 34 306 0.0 0.0 0.00 0.00 0.00 97 1017.4
20260502055117 34 306 0.0 0.0 0.00 0.00 0.00 97 1017.5
20260502054616 34 306 0.0 0.0 0.00 0.00 0.00 97 1017.4
20260502054113 35 306 0.0 0.0 0.00 0.00 0.00 97 1017.5
20260502053610 35 306 0.0 0.0 0.00 0.00 0.00 97 1017.5
20260502053107 35 305 0.0 0.0 0.00 0.00 0.00 97 1017.4
20260502052606 35 305 0.0 0.0 0.00 0.00 0.00 97 1017.6
20260502052104 35 305 0.0 0.0 0.00 0.00 0.00 97 1017.6
20260502051601 35 306 0.0 0.0 0.00 0.00 0.00 97 1017.3
20260502051059 35 306 0.0 0.0 0.00 0.00 0.00 97 1017.7
20260502050555 35 306 0.0 0.0 0.00 0.00 0.00 97 1017.6
20260502050052 36 305 0.0 0.0 0.00 0.00 0.00 97 1017.7
20260502045548 36 305 0.0 0.0 0.00 0.00 0.00 97 1017.7
20260502045046 36 306 0.0 0.0 0.00 0.00 0.00 97 1017.7
20260502044542 36 305 0.0 0.0 0.00 0.00 0.00 96 1017.7
20260502044039 36 305 0.0 0.0 0.00 0.00 0.00 96 1017.8
20260502043537 36 305 0.0 0.0 0.00 0.00 0.00 96 1017.6
20260502043032 36 305 0.0 0.0 0.00 0.00 0.00 96 1017.5
20260502042527 37 305 0.0 0.0 0.00 0.00 0.00 96 1017.5
20260502042025 37 306 0.0 0.0 0.00 0.00 0.00 96 1017.5
20260502041523 37 311 0.0 0.0 0.00 0.00 0.00 95 1017.5
20260502041020 37 311 0.0 0.0 0.00 0.00 0.00 95 1017.5
20260502040516 37 311 0.0 0.0 0.00 0.00 0.00 95 1017.4
20260502040014 38 311 0.0 0.0 0.00 0.00 0.00 95 1017.3
20260502035509 38 311 0.0 0.0 0.00 0.00 0.00 95 1017.3
20260502035007 38 311 0.0 0.0 0.00 0.00 0.00 94 1017.4
20260502034505 38 311 0.0 0.0 0.00 0.00 0.00 94 1017.4
20260502034003 39 311 0.0 0.0 0.00 0.00 0.00 94 1017.2
20260502033500 39 311 0.0 0.0 0.00 0.00 0.00 94 1017.2
20260502032957 40 311 0.0 0.0 0.00 0.00 0.00 93 1017.4
20260502032453 40 311 0.0 0.0 0.00 0.00 0.00 92 1017.3
20260502031950 40 311 0.0 0.0 0.00 0.00 0.00 91 1017.6
20260502031449 40 311 0.0 0.0 0.00 0.00 0.00 90 1017.5
20260502030947 41 311 0.0 0.0 0.00 0.00 0.00 90 1017.4
20260502030445 41 311 0.0 0.0 0.00 0.00 0.00 89 1017.4
20260502025942 42 311 0.0 0.0 0.00 0.00 0.00 89 1017.4
20260502025439 42 311 0.0 0.0 0.00 0.00 0.00 88 1017.5
20260502024937 42 311 0.0 0.0 0.00 0.00 0.00 88 1017.4
20260502024435 43 311 0.9 0.9 0.00 0.00 0.00 86 1017.2
20260502023933 44 313 0.0 0.0 0.00 0.00 0.00 84 1017.2
20260502023430 45 313 0.0 0.9 0.00 0.00 0.00 82 1017.3
20260502022927 45 313 0.0 0.0 0.00 0.00 0.00 78 1017.0
20260502022424 46 313 0.0 0.0 0.00 0.00 0.00 76 1016.9
20260502021921 46 314 1.7 1.7 0.00 0.00 0.00 76 1017.0
20260502021418 46 313 0.0 0.0 0.00 0.00 0.00 75 1016.7
20260502020915 46 316 2.6 2.6 0.00 0.00 0.00 74 1016.7
20260502020413 47 314 0.9 0.9 0.00 0.00 0.00 74 1016.8
20260502015909 47 315 0.0 3.5 0.00 0.00 0.00 73 1016.6
20260502015407 47 312 1.7 1.7 0.00 0.00 0.00 72 1016.6
20260502014904 47 311 3.5 5.2 0.00 0.00 0.00 72 1016.4
20260502014400 48 314 5.2 9.6 0.00 0.00 0.00 72 1016.6
20260502013856 48 322 2.6 2.6 0.00 0.00 0.00 70 1016.5
20260502013352 48 323 0.9 2.6 0.00 0.00 0.00 70 1016.1
20260502012849 48 314 0.0 2.6 0.00 0.00 0.00 70 1016.0
20260502012347 48 330 2.6 3.5 0.00 0.00 0.00 71 1016.1
20260502011844 49 314 2.6 2.6 0.00 0.00 0.00 69 1015.8
20260502011340 49 345 0.9 2.6 0.00 0.00 0.00 70 1015.8
20260502010838 49 317 1.7 5.2 0.00 0.00 0.00 69 1015.5
20260502010334 49 320 0.0 6.1 0.00 0.00 0.00 68 1015.3
20260502005831 49 329 6.1 7.8 0.00 0.00 0.00 69 1015.6
20260502005329 49 338 4.3 8.7 0.00 0.00 0.00 71 1015.7
20260502004826 50 320 4.3 8.7 0.00 0.00 0.00 73 1015.4
20260502004322 50 352 1.7 9.6 0.00 0.00 0.00 75 1015.2
20260502003820 50 303 5.2 9.6 0.00 0.00 0.00 80 1015.2
20260502003317 50 303 0.0 1.7 0.00 0.00 0.00 87 1014.8
20260502002813 49 273 0.0 0.0 0.00 0.00 0.00 83 1014.4
20260502002310 50 273 0.0 0.0 0.00 0.00 0.00 83 1014.3
20260502001808 50 273 0.9 0.9 0.00 0.00 0.00 82 1014.1
20260502001305 50 273 0.0 0.0 0.00 0.00 0.00 82 1013.8
20260502000757 50 273 0.0 0.0 0.00 0.00 0.00 80 1013.7
20260502000256 50 273 0.0 0.9 0.00 0.00 0.00 81 1013.8
20260501235756 50 273 0.0 0.9 0.00 0.00 0.00 82 1013.6
20260501235252 50 272 0.0 0.9 0.00 0.00 0.00 81 1013.6
20260501234748 50 273 0.0 0.0 0.00 0.00 0.00 79 1013.7
20260501234245 51 273 0.0 0.9 0.00 0.00 0.00 79 1013.6
20260501233743 51 272 0.9 0.9 0.00 0.00 0.00 79 1013.6
20260501233241 51 269 0.9 1.7 0.00 0.00 0.00 78 1013.6
20260501232736 51 245 0.9 1.7 0.00 0.00 0.00 79 1013.7
20260501232233 51 276 0.0 0.9 0.00 0.00 0.00 78 1013.5
20260501231731 51 276 0.9 0.9 0.00 0.00 0.00 79 1013.4
20260501231229 51 285 0.9 1.7 0.00 0.00 0.00 79 1013.4
20260501230727 50 273 0.9 1.7 0.00 0.00 0.00 80 1013.5
20260501230225 51 269 0.9 1.7 0.00 0.00 0.00 80 1013.5
20260501225722 51 244 0.9 0.9 0.00 0.00 0.00 79 1013.4
20260501225219 51 239 1.7 1.7 0.00 0.00 0.00 77 1013.4
20260501224715 51 314 0.0 2.6 0.00 0.00 0.00 76 1013.4
20260501224213 51 253 1.7 2.6 0.00 0.00 0.00 76 1013.2
20260501223709 51 260 1.7 1.7 0.00 0.00 0.00 79 1013.4
20260501223205 51 270 2.6 3.5 0.00 0.00 0.00 78 1013.2
20260501222701 51 259 1.7 2.6 0.00 0.00 0.00 79 1013.4
20260501222159 51 308 0.9 2.6 0.00 0.00 0.00 80 1013.5
20260501221655 51 262 1.7 1.7 0.00 0.00 0.00 80 1013.4
20260501221153 51 308 1.7 1.7 0.00 0.00 0.00 80 1013.6
20260501220650 51 285 1.7 6.1 0.00 0.00 0.00 81 1013.7